Location: *
(49.5667°N, 1.3667°W)
Time: 23:31:04
(UTC+00:00)

Cosmos 389 Rocket - Pass Details

Date: 20 September 2019
Orbit: 444 x 478 km, 81.1° (Epoch: 22 October)

Event Time Altitude Azimuth Distance (km) Brightness Sun altitude
Rises 19:58:45 0° 340° (NNW) 2,457 6.8 -18.1°
Reaches altitude 10° 20:00:56 10° 331° (NNW) 1,578 5.9 -18.4°
Maximum altitude 20:04:05 34° 265° (W) 752 4.0 -18.9°
Drops below altitude 10° 20:07:13 10° 199° (SSW) 1,566 5.1 -19.4°
Enters shadow 20:07:18 10° 198° (SSW) 1,598 5.1 -19.4°
